Wetbulb
54.06 53.94 54.07 54.42 53.22 53.26 51.35 47.48 47.04 53.79 55.13 47.11 43.02 42.33 45.30 48.39 48.91 50.49 49.95 47.84 47.15 45.08 46.20 42.84 42.50 43.34 45.41 51.62 45.34 42.59 41.93 38.03 36.82 41.25 44.28 46.24 44.19 44.49 45.62 41.59 39.83 39.55 39.98 43.05
54.01 54.14 53.78 53.89 52.70 53.85 52.52 48.05 46.95 55.90 53.68 43.31 43.06 45.81 48.90 50.78 49.92 49.56 48.70 48.15 49.46 48.24 43.84 41.88 44.43 48.50 53.14 57.04 45.62 43.80 43.69 37.92 35.23 38.54 41.01 45.55 44.78 46.13 44.70 43.57 43.20 41.25 41.60 43.42
54.64 53.90 53.66 53.58 52.86 53.75 52.54 49.01 46.64 50.09 50.35 47.47 46.23 45.54 47.84 47.96 53.54 51.55 51.62 50.29 49.37 45.73 43.59 43.37 44.62 51.37 55.68 56.86 55.39 58.81 50.25 36.63 38.98 38.92 39.62 45.05 44.77 47.68 46.46 44.19 40.36 41.29 43.87 46.52
55.64 54.40 53.91 53.72 52.89 53.22 51.73 48.70 46.30 49.04 45.28 46.72 47.69 47.87 48.55 49.64 49.48 51.71 52.88 50.19 52.16 48.13 40.48 44.25 47.27 51.28 51.53 53.65 56.71 51.78 45.28 37.32 36.13 39.26 42.44 47.59 49.07 47.79 48.51 45.62 45.42 44.07 45.60 47.31
56.20 54.78 54.00 54.21 53.30 52.94 52.04 46.23 47.95 50.10 47.17 47.98 46.88 46.45 46.87 49.49 52.36 51.06 51.35 50.80 54.04 51.19 42.21 43.96 44.09 49.85 48.16 47.68 52.19 49.17 48.08 42.54 38.77 38.25 46.36 48.03 47.62 49.04 49.27 49.39 49.17 47.70 46.08 48.46
56.40 55.75 54.26 54.24 53.77 53.37 52.90 54.19 50.95 49.47 46.31 46.98 44.83 45.72 49.02 51.68 52.95 53.74 55.34 54.53 51.94 50.98 51.87 53.93 51.88 50.95 50.13 50.18 49.26 48.43 47.26 45.73 43.23 41.05 42.63 42.82 39.58 44.30 46.48 49.54 49.42 49.64 46.74 50.45
56.16 56.47 55.46 54.61 54.06 54.59 54.39 52.87 52.33 46.92 44.77 47.16 48.17 50.26 51.33 51.53 52.37 51.12 54.89 55.28 51.81 54.85 56.85 54.63 52.82 52.27 51.74 52.45 49.73 49.14 46.37 44.77 40.95 41.83 41.21 36.05 44.53 47.24 51.80 50.81 52.65 53.96 53.52 53.39
55.69 56.24 55.93 55.25 54.33 54.44 53.10 51.12 52.19 51.32 45.96 47.69 48.44 49.45 49.80 51.13 51.34 51.72 54.19 56.02 55.94 56.04 53.75 48.89 46.42 47.30 47.98 49.92 50.97 49.45 48.08 43.47 40.17 40.91 37.71 43.35 47.76 50.98 50.54 49.49 49.86 58.11 55.16 55.04
55.39 55.81 56.29 55.53 54.49 54.09 53.21 52.73 53.18 49.79 46.65 43.29 50.50 48.20 49.18 46.84 47.29 48.91 52.65 57.17 56.03 56.14 49.13 48.72 43.38 41.92 45.28 46.11 48.33 49.09 49.14 46.24 44.54 39.62 38.43 37.53 44.90 54.48 57.00 54.66 46.20 59.24 58.26 55.61
55.16 55.63 56.01 55.59 54.97 54.30 53.74 52.52 54.89 53.48 49.57 47.04 47.49 46.46 46.83 48.93 47.91 46.49 49.30 52.50 53.62 54.81 48.27 46.88 45.38 44.41 48.04 43.17 43.19 43.93 44.45 44.49 43.04 41.30 40.59 43.19 52.42 55.60 56.68 44.85 47.20 60.36 60.52 60.91
54.93 55.35 55.71 55.46 55.20 55.77 55.76 50.70 54.86 54.18 51.33 48.32 51.02 51.10 47.17 47.89 47.87 45.86 49.06 49.82 51.61 52.21 47.42 46.47 45.48 44.76 46.72 44.80 46.42 45.14 43.81 44.25 44.86 44.69 39.87 39.59 54.96 55.38 50.69 52.37 58.48 61.07 61.21 60.46
54.58 55.28 55.66 55.41 55.14 56.31 57.06 51.67 54.29 56.05 52.00 48.91 52.08 53.60 54.32 53.03 52.75 48.46 48.48 48.90 49.63 53.34 48.57 47.82 47.98 45.93 47.40 43.18 41.14 46.12 44.11 48.08 45.61 47.46 47.99 53.23 55.00 54.54 57.92 58.99 59.87 60.82 59.56 60.42
54.65 54.97 55.41 55.39 54.91 55.83 56.32 54.33 53.87 51.97 50.46 48.61 45.48 47.69 52.16 53.48 53.92 55.26 46.40 49.08 52.67 53.42 54.22 50.72 49.75 45.78 47.03 42.15 43.54 45.45 49.52 51.78 48.88 49.38 54.05 55.55 56.27 57.25 58.77 59.33 60.71 61.19 60.83 60.29
54.60 54.75 55.35 55.33 54.85 55.44 56.30 54.61 54.73 51.62 50.46 45.53 44.04 52.25 50.39 53.26 52.75 53.53 53.73 53.08 52.07 55.50 54.77 50.56 49.32 46.17 49.28 45.44 46.37 46.55 50.37 51.42 49.61 49.28 52.75 55.43 57.63 57.74 57.95 59.40 60.39 63.00 61.40 60.19
54.40 54.54 55.24 55.31 54.77 54.52 53.84 55.53 55.62 54.18 49.99 45.29 45.83 49.95 51.41 51.74 51.15 52.82 53.31 52.10 50.69 47.73 47.57 49.18 50.13 52.29 51.75 50.38 50.26 48.59 51.84 49.81 48.93 49.29 54.92 55.11 55.78 58.17 59.88 58.98 59.28 60.69 61.43 60.26
54.15 54.50 55.34 55.02 54.32 54.48 54.14 50.45 54.40 54.77 53.00 48.47 44.40 47.34 48.58 51.40 51.94 51.17 51.89 52.51 51.14 48.68 46.29 46.64 49.08 53.99 53.86 49.07 47.66 53.10 53.88 54.04 54.75 54.58 57.48 58.71 58.84 58.77 59.16 58.14 60.61 62.40 61.32 61.28
54.16 54.54 54.36 54.07 53.90 54.77 51.55 49.64 51.99 52.61 53.37 48.80 45.33 42.98 48.78 52.45 52.05 50.96 49.96 51.68 50.57 49.30 47.71 46.78 48.11 49.81 52.48 48.62 46.97 53.13 55.89 57.36 56.55 57.62 56.46 56.06 59.10 57.56 58.82 59.25 60.11 60.72 63.21 64.82
54.32 53.97 53.91 53.67 53.93 53.67 50.36 53.23 53.04 53.43 51.41 50.95 45.05 42.63 45.54 51.13 49.27 47.57 50.26 48.53 48.56 48.37 48.65 48.37 47.35 48.45 49.99 47.35 51.19 54.07 55.75 56.49 57.07 58.06 57.90 58.10 58.99 59.97 60.21 62.88 62.22 59.12 62.90 63.51
53.99 54.05 54.47 53.59 52.46 50.50 50.79 55.39 55.50 54.15 51.06 45.58 46.47 41.51 41.17 49.86 47.82 50.07 50.75 49.10 46.23 49.18 47.24 47.03 49.10 46.42 46.16 51.06 52.64 54.79 56.65 55.04 55.91 57.76 58.10 58.15 58.04 57.84 59.40 62.58 62.80 61.72 62.35 63.19
54.04 53.21 50.12 47.77 49.48 56.50 55.59 52.18 49.50 49.36 49.19 48.67 45.17 44.32 42.27 45.81 46.65 48.26 50.30 50.79 45.94 43.61 47.63 48.65 46.26 47.98 52.39 52.37 53.78 56.63 57.09 57.30 56.20 54.61 54.59 55.88 56.31 58.02 58.50 60.51 62.31 62.53 63.09 63.68
51.43 49.02 48.83 52.84 55.66 51.90 50.28 46.63 45.97 46.77 45.10 46.31 46.32 43.75 42.15 46.96 44.70 48.32 51.61 51.03 50.22 43.63 45.09 45.38 44.13 44.64 48.61 53.77 54.16 54.84 57.28 56.70 56.92 57.29 57.79 58.53 58.71 58.20 57.96 57.28 60.45 61.44 61.14 62.07
50.85 51.81 53.10 52.30 49.67 47.91 45.61 44.41 44.59 43.90 41.71 45.60 45.54 47.65 45.73 45.95 48.74 50.11 51.17 46.47 48.62 45.75 49.61 45.50 42.64 47.06 52.19 57.12 54.30 54.75 55.30 57.15 58.22 59.94 60.29 60.15 60.03 58.43 57.31 57.27 57.76 58.80 59.05 58.88
53.25 50.57 47.77 46.93 45.87 39.16 41.14 39.57 41.77 42.78 44.29 47.83 50.63 48.79 50.94 48.69 49.59 47.40 48.75 47.63 45.56 48.70 46.21 45.79 47.08 50.77 54.50 54.91 55.47 54.84 56.37 58.33 60.27 61.47 59.65 58.54 58.54 57.79 57.86 57.44 58.64 59.05 57.79 60.21
48.27 46.28 36.96 42.96 40.93 40.34 41.86 41.02 42.45 46.84 49.63 49.45 49.61 49.52 49.69 50.39 46.97 45.51 41.45 45.23 47.01 43.05 41.97 44.41 48.45 51.36 52.76 54.41 57.62 56.78 56.63 60.70 61.26 60.67 58.77 58.14 58.22 60.24 61.00 60.40 59.60 59.27 60.86 59.71
46.81 47.60 39.12 42.07 43.93 46.34 48.39 48.85 48.37 51.98 52.71 47.69 46.13 47.60 48.34 49.01 48.43 49.33 44.52 43.26 42.45 45.06 44.80 47.24 51.50 53.96 52.66 52.85 55.52 58.67 59.57 60.32 60.27 60.45 59.90 59.81 59.81 59.69 59.23 58.99 59.23 58.70 57.52 56.98
48.29 47.17 44.77 46.61 45.59 46.24 48.07 50.00 50.12 52.26 49.20 47.77 46.49 43.16 43.02 43.67 46.71 44.61 46.14 42.88 42.45 44.70 47.94 50.95 52.25 52.55 53.95 54.85 57.95 58.81 61.21 60.52 59.31 58.65 59.06 59.08 58.54 57.52 56.20 56.56 56.36 56.58 56.16 54.85
45.86 44.53 45.48 47.76 47.67 47.03 48.40 50.24 50.57 53.18 49.31 45.39 47.51 44.89 42.63 45.67 43.28 42.80 45.91 43.84 46.42 50.49 50.24 50.94 51.18 51.13 54.32 57.10 59.30 60.56 60.32 59.04 58.16 57.74 57.74 57.60 57.44 57.20 56.40 54.58 54.24 54.40 53.75 53.17
MSLP
1018.26 1017.90 1017.47 1016.97 1016.36 1015.29 1014.31 1014.39 1013.09 1011.04 1011.15 1011.55 1012.17 1012.04 1010.91 1009.71 1008.34 1007.59 1007.19 1006.69 1006.44 1005.85 1005.11 1004.50 1004.05 1003.79 1003.25 1002.68 1002.93 1004.30 1004.59 1005.49 1005.51 1004.39 1003.24 1003.35 1003.71 1004.34 1005.20 1006.92 1008.20 1008.23 1007.73 1005.72
1018.16 1017.84 1017.50 1017.09 1016.69 1016.22 1015.95 1015.30 1013.83 1011.31 1011.43 1011.93 1012.21 1011.44 1010.50 1009.40 1008.34 1007.36 1006.94 1006.31 1005.66 1005.08 1004.74 1004.55 1004.01 1003.58 1002.72 1002.65 1002.79 1003.00 1004.05 1005.06 1005.36 1004.85 1004.01 1003.34 1003.51 1003.63 1004.27 1005.29 1006.25 1007.24 1006.99 1005.51
1018.02 1017.75 1017.50 1017.15 1016.84 1016.51 1016.29 1015.63 1014.36 1012.62 1012.09 1012.08 1011.82 1011.40 1010.28 1009.03 1007.68 1007.03 1006.49 1005.78 1005.19 1004.99 1004.64 1004.45 1003.99 1003.76 1003.21 1003.10 1003.27 1003.00 1003.40 1004.64 1005.08 1005.20 1004.37 1003.70 1003.49 1003.32 1003.65 1004.30 1005.82 1006.17 1005.59 1004.65
1017.88 1017.62 1017.44 1017.17 1016.86 1016.53 1016.52 1015.95 1015.18 1014.30 1013.28 1012.78 1012.15 1011.34 1010.33 1009.27 1008.19 1007.14 1006.46 1005.86 1005.75 1005.68 1005.24 1004.71 1004.39 1004.03 1004.09 1003.56 1003.91 1003.71 1004.26 1005.31 1005.27 1004.30 1003.74 1003.53 1002.96 1002.86 1003.19 1003.51 1004.08 1004.70 1004.26 1004.58
1017.78 1017.49 1017.31 1017.19 1016.84 1016.49 1016.41 1016.05 1015.63 1014.64 1013.94 1013.19 1012.30 1011.48 1010.48 1009.72 1008.57 1007.73 1007.22 1006.60 1005.73 1005.10 1005.25 1004.99 1004.48 1004.47 1004.53 1004.48 1004.48 1004.67 1005.03 1005.78 1005.54 1005.22 1004.31 1003.67 1002.86 1002.22 1002.44 1002.50 1002.74 1003.24 1003.52 1003.41
1017.72 1017.43 1017.28 1017.13 1016.88 1016.60 1016.39 1015.81 1015.68 1015.42 1014.40 1013.66 1012.86 1012.08 1011.08 1009.93 1009.16 1007.82 1007.16 1006.88 1006.21 1005.60 1005.56 1005.29 1004.72 1004.62 1004.88 1004.99 1005.37 1005.72 1005.92 1006.33 1006.53 1006.16 1005.15 1004.13 1003.22 1002.17 1001.61 1001.62 1001.83 1002.28 1003.18 1002.44
1017.60 1017.34 1017.10 1017.05 1017.01 1016.92 1016.90 1016.40 1016.16 1015.91 1015.11 1014.21 1013.36 1012.51 1011.70 1010.55 1009.90 1009.08 1007.51 1006.94 1006.53 1005.67 1005.47 1004.99 1005.06 1005.28 1005.48 1005.47 1005.84 1006.10 1006.53 1006.80 1006.99 1006.89 1005.92 1004.79 1002.57 1001.52 1001.21 1001.28 1001.85 1002.38 1001.81 1002.30
1017.50 1017.23 1016.95 1016.89 1017.03 1016.98 1017.03 1016.87 1016.57 1016.16 1015.61 1014.82 1013.63 1012.80 1012.08 1011.05 1010.33 1009.48 1008.31 1007.42 1006.92 1006.29 1006.06 1006.51 1006.56 1006.56 1006.50 1006.50 1006.53 1006.68 1007.12 1007.36 1007.66 1007.62 1006.97 1005.31 1002.91 1001.98 1001.77 1001.52 1002.05 1002.06 1002.36 1002.47
1017.25 1017.09 1016.84 1016.73 1016.84 1016.94 1017.09 1016.86 1016.64 1016.48 1015.90 1014.58 1013.94 1013.26 1012.56 1012.03 1011.23 1010.30 1008.99 1007.68 1007.12 1006.82 1007.57 1008.09 1008.64 1008.81 1008.78 1008.32 1007.43 1007.27 1007.42 1007.61 1007.72 1008.12 1007.26 1005.96 1003.85 1003.18 1002.83 1002.33 1002.64 1002.80 1003.08 1003.48
1016.99 1016.86 1016.63 1016.54 1016.62 1016.77 1016.97 1016.72 1016.39 1016.22 1015.72 1014.40 1013.93 1013.45 1012.93 1012.54 1012.14 1011.57 1010.41 1009.47 1008.26 1007.98 1009.16 1009.84 1010.15 1010.03 1009.97 1009.72 1009.22 1009.10 1008.86 1008.45 1008.51 1007.80 1006.91 1005.41 1004.71 1004.08 1003.76 1003.67 1003.47 1003.08 1003.21 1004.26
1016.74 1016.61 1016.44 1016.34 1016.38 1016.53 1016.59 1016.49 1016.08 1016.03 1015.55 1014.41 1013.66 1013.29 1013.07 1012.99 1012.73 1012.37 1011.03 1010.17 1009.81 1009.55 1010.04 1010.68 1010.86 1011.05 1010.82 1010.64 1010.07 1009.66 1009.56 1009.34 1008.94 1008.11 1006.51 1005.32 1004.39 1003.72 1004.08 1003.59 1002.90 1002.38 1003.10 1003.85
1016.46 1016.38 1016.21 1016.15 1016.18 1016.26 1016.16 1016.42 1016.00 1015.71 1015.81 1014.27 1013.33 1012.72 1012.45 1012.37 1012.41 1012.65 1011.85 1011.22 1010.59 1010.24 1010.85 1011.03 1011.21 1011.52 1011.67 1011.40 1010.87 1010.09 1009.87 1009.17 1009.05 1008.07 1006.00 1004.38 1003.91 1004.39 1004.07 1003.57 1003.32 1001.58 1001.38 1002.12
1016.15 1016.19 1016.02 1015.97 1016.02 1016.13 1016.14 1016.08 1016.01 1015.82 1015.40 1013.66 1012.99 1011.37 1010.70 1010.79 1011.01 1011.42 1012.14 1010.66 1009.93 1010.04 1010.26 1010.85 1011.21 1011.47 1011.39 1011.43 1010.81 1010.16 1009.34 1008.97 1008.69 1007.73 1005.49 1004.93 1002.99 1003.84 1003.56 1003.08 1003.01 1002.05 1000.11 1000.79
1015.80 1015.95 1015.83 1015.80 1015.90 1015.95 1015.96 1016.01 1015.79 1015.85 1015.63 1014.87 1012.12 1010.69 1010.17 1009.56 1009.73 1010.24 1010.10 1009.62 1009.76 1010.29 1010.51 1010.82 1010.95 1011.05 1010.71 1010.81 1010.42 1010.02 1008.76 1008.58 1007.91 1006.92 1005.16 1004.16 1003.31 1003.69 1003.35 1003.08 1003.24 1002.78 1001.78 1001.15
1015.47 1015.64 1015.64 1015.66 1015.75 1015.82 1015.94 1015.82 1015.61 1015.59 1015.90 1014.99 1012.81 1010.95 1009.01 1008.84 1008.92 1009.12 1009.36 1009.83 1010.40 1010.87 1011.03 1010.94 1010.68 1010.18 1010.31 1010.29 1010.14 1009.01 1007.77 1007.05 1006.83 1006.01 1005.07 1004.59 1003.88 1003.60 1003.37 1003.29 1003.05 1002.97 1002.74 1002.13
1015.19 1015.39 1015.41 1015.56 1015.60 1015.68 1015.92 1015.66 1015.51 1015.38 1015.41 1015.23 1013.54 1011.20 1009.42 1008.50 1008.11 1008.47 1008.66 1008.94 1009.95 1010.38 1010.63 1010.12 1009.38 1008.75 1009.04 1009.58 1009.06 1006.76 1006.05 1005.61 1004.88 1004.67 1004.63 1004.44 1004.35 1004.00 1004.21 1004.08 1003.52 1002.94 1002.98 1003.06
1014.99 1015.10 1015.24 1015.43 1015.51 1015.56 1015.58 1015.54 1015.43 1015.28 1015.33 1015.15 1013.92 1012.12 1009.58 1007.90 1007.43 1007.54 1007.89 1008.07 1008.77 1009.20 1009.67 1009.48 1008.90 1008.38 1008.36 1008.52 1007.66 1005.55 1005.02 1004.46 1003.67 1003.81 1004.42 1004.12 1003.56 1003.97 1003.92 1003.26 1002.87 1002.46 1002.59 1003.03
1014.86 1015.04 1015.22 1015.33 1015.40 1015.51 1015.45 1015.01 1015.04 1015.23 1015.23 1014.97 1014.27 1012.47 1010.63 1008.19 1007.81 1007.54 1007.19 1007.65 1008.23 1008.40 1008.33 1008.38 1008.25 1008.07 1007.68 1007.03 1005.37 1004.71 1003.91 1003.69 1003.33 1002.78 1003.36 1003.45 1003.92 1003.55 1003.15 1002.51 1002.30 1002.64 1003.03 1003.93
1014.85 1015.05 1015.25 1015.40 1015.42 1015.31 1015.04 1014.86 1014.97 1015.05 1015.45 1014.90 1014.18 1013.13 1011.36 1009.08 1008.44 1007.81 1007.34 1007.31 1007.99 1007.70 1007.76 1007.60 1007.61 1007.38 1006.45 1004.64 1003.93 1003.52 1002.95 1003.07 1002.48 1003.18 1003.29 1003.29 1003.55 1003.24 1002.92 1003.15 1002.69 1003.09 1003.40 1004.16
1014.90 1015.17 1015.18 1015.11 1014.93 1014.67 1014.87 1015.14 1015.14 1014.98 1014.82 1014.72 1013.85 1013.05 1011.99 1010.55 1009.40 1008.30 1007.97 1007.62 1007.51 1007.64 1006.87 1006.70 1006.53 1005.55 1004.21 1003.46 1003.01 1002.79 1002.37 1002.33 1002.69 1002.90 1002.90 1002.97 1002.64 1002.56 1003.14 1003.64 1004.18 1003.92 1003.98 1003.35
1014.91 1014.80 1014.79 1014.86 1014.76 1014.88 1014.82 1014.70 1014.70 1014.48 1014.30 1013.81 1012.88 1012.40 1011.98 1010.46 1010.04 1008.95 1008.31 1007.88 1007.48 1007.34 1006.97 1006.72 1005.94 1004.91 1003.11 1001.99 1001.93 1001.63 1001.54 1002.03 1002.44 1002.57 1002.45 1002.32 1002.23 1002.59 1002.84 1003.69 1004.66 1005.06 1004.62 1004.71
1014.25 1014.37 1014.65 1014.90 1014.96 1014.73 1014.59 1014.23 1014.23 1013.83 1013.10 1012.37 1011.91 1010.97 1011.09 1010.22 1009.58 1009.22 1008.45 1008.27 1007.76 1007.31 1006.86 1006.58 1005.27 1003.13 1002.18 1001.82 1001.51 1001.15 1001.51 1001.80 1002.00 1001.98 1001.88 1001.97 1002.14 1002.63 1003.32 1003.76 1004.73 1005.00 1005.04 1005.93
1014.27 1014.36 1014.52 1014.51 1014.70 1014.29 1013.91 1013.39 1013.11 1012.46 1011.95 1011.33 1010.83 1010.41 1009.83 1009.60 1009.38 1009.22 1008.85 1008.31 1007.94 1007.05 1006.78 1005.82 1004.20 1002.75 1002.82 1002.68 1002.02 1001.96 1001.61 1001.91 1002.35 1002.16 1002.28 1002.45 1002.15 1002.87 1003.73 1004.84 1005.19 1005.62 1006.32 1006.72
1013.97 1013.91 1014.20 1014.15 1013.86 1013.39 1012.58 1012.17 1011.71 1011.21 1011.02 1010.84 1010.65 1010.24 1009.71 1009.28 1009.35 1009.17 1009.01 1008.37 1008.11 1007.47 1006.77 1005.48 1004.49 1003.86 1003.53 1003.33 1002.67 1002.44 1001.97 1002.01 1002.49 1002.63 1002.77 1003.29 1003.64 1004.07 1004.80 1005.23 1005.57 1006.10 1006.66 1007.30
1013.69 1013.54 1013.26 1013.14 1012.52 1012.08 1011.67 1011.41 1011.37 1011.02 1010.85 1010.85 1010.60 1010.32 1010.06 1009.37 1009.19 1008.77 1008.74 1008.61 1008.10 1007.20 1006.08 1005.37 1004.80 1004.13 1003.91 1003.56 1003.03 1002.47 1001.97 1001.97 1002.71 1003.06 1003.61 1004.09 1004.64 1005.15 1005.68 1006.06 1006.38 1006.77 1007.26 1008.25
1013.33 1013.27 1012.86 1012.26 1012.15 1011.60 1011.24 1010.98 1010.84 1010.77 1010.85 1010.85 1010.78 1010.62 1010.22 1009.49 1008.81 1008.39 1008.16 1008.17 1007.35 1006.37 1005.68 1005.28 1005.14 1004.66 1003.99 1003.60 1003.31 1003.19 1002.49 1002.68 1002.79 1003.49 1003.88 1004.35 1005.06 1005.34 1005.90 1006.31 1006.80 1007.01 1007.44 1007.99
1013.27 1012.82 1012.44 1012.11 1011.89 1011.56 1011.15 1010.87 1010.75 1010.52 1010.66 1010.86 1010.69 1010.52 1009.76 1009.17 1008.62 1008.06 1007.62 1007.41 1007.13 1006.85 1006.25 1005.90 1005.35 1005.02 1004.20 1003.50 1003.65 1003.74 1003.66 1003.46 1003.58 1004.48 1004.83 1005.20 1005.80 1006.36 1006.78 1007.32 1007.82 1008.25 1008.60 1008.89
Wind_Speed
14 16 16 15 17 22 6 4 3 2 2 5 1 3 5 4 5 3 8 3 8 6 5 4 3 3 5 9 8 11 9 6 5 11 5 1 2 6 8 7 5 2 4 9
14 14 15 12 13 13 4 3 3 4 3 2 1 4 4 4 4 4 3 4 4 4 2 3 2 1 5 9 3 9 10 3 3 12 9 4 3 4 5 4 4 6 7 7
11 13 13 11 11 10 3 3 2 4 3 1 3 3 6 4 4 6 5 8 4 2 4 3 2 2 3 6 6 7 6 4 9 11 10 4 4 4 3 8 4 4 7 9
11 10 11 9 10 9 1 1 1 2 2 2 3 2 3 6 5 2 6 6 5 2 4 2 3 1 4 3 6 4 5 2 1 6 6 6 6 5 4 3 6 6 6 9
13 9 10 8 10 9 1 2 3 5 2 3 4 2 1 4 6 2 5 4 15 4 4 5 6 4 3 2 6 3 4 1 3 3 5 5 3 4 6 6 5 5 2 8
13 10 8 6 9 5 2 2 2 2 3 4 2 1 4 4 7 4 4 5 5 6 4 8 6 2 4 3 1 1 3 3 3 5 5 1 4 8 5 6 3 6 7 9
13 11 6 3 5 4 1 2 1 2 4 1 1 5 6 7 6 4 7 4 4 4 9 4 2 5 3 6 5 1 3 5 2 3 4 1 11 4 5 6 4 2 0 3
10 11 7 1 2 2 1 2 1 1 3 2 6 4 4 9 5 3 4 3 3 8 6 5 6 6 5 6 4 6 3 2 3 4 4 6 4 6 3 7 0 4 4 6
9 10 8 3 3 3 2 2 2 1 1 5 2 3 3 3 3 6 5 6 7 5 4 4 4 3 2 6 9 5 4 4 3 3 3 5 5 5 11 6 3 4 4 8
9 9 9 4 4 3 3 3 2 2 3 4 2 3 3 3 3 3 5 7 8 3 3 3 3 4 1 2 2 4 5 3 3 3 4 7 0 10 7 5 9 2 12 10
8 8 9 4 3 5 4 3 4 2 3 5 5 2 1 4 2 1 5 4 3 4 4 3 1 1 3 0 3 3 3 2 3 0 3 4 3 9 6 3 4 14 12 10
8 9 7 5 4 3 3 1 3 1 3 6 3 9 14 14 12 2 4 3 3 4 3 0 3 2 1 1 3 1 3 6 3 7 6 3 4 6 8 1 9 6 14 9
7 8 7 5 5 3 3 1 2 2 3 7 1 9 10 10 17 15 4 4 3 1 3 3 1 3 4 3 5 2 4 4 4 4 4 8 3 5 4 4 8 12 6 11
7 7 7 5 4 4 3 1 1 1 2 4 8 4 8 4 5 16 21 12 4 3 2 1 2 2 3 4 4 4 5 3 3 6 8 7 0 5 5 5 8 10 6 7
7 6 6 6 5 3 1 2 2 2 1 3 8 14 7 6 8 15 18 16 8 2 2 1 4 2 3 1 2 4 5 7 5 6 5 3 3 4 3 6 10 9 7 4
6 6 6 6 6 4 2 2 1 3 2 3 5 5 6 5 3 8 12 12 5 4 4 5 4 3 4 4 4 8 6 6 9 6 4 6 6 3 6 7 10 9 7 6
5 5 5 5 4 2 2 1 1 1 2 2 5 6 6 6 4 3 3 6 5 5 4 4 3 3 5 2 5 7 8 13 12 9 1 10 11 5 6 5 10 10 5 6
4 6 5 3 3 2 3 2 6 2 1 2 3 6 6 4 3 2 1 4 2 2 4 1 3 2 2 7 8 9 10 5 10 9 7 11 8 10 9 9 8 11 8 10
6 7 7 2 1 2 2 4 4 1 1 2 2 3 5 6 3 2 3 2 2 1 4 4 5 3 7 8 11 10 14 10 9 3 6 6 9 6 7 7 10 14 15 17
8 2 2 2 3 6 6 1 1 1 1 2 3 1 4 3 3 4 3 1 4 2 6 3 5 10 14 10 9 8 8 9 1 4 8 2 5 4 2 3 2 11 13 18
2 3 1 1 1 1 1 2 2 2 2 3 4 5 3 2 2 3 1 2 2 2 4 3 4 5 9 18 19 11 9 5 5 4 5 7 8 6 7 10 8 9 11 12
3 2 3 1 1 2 2 3 2 3 4 3 3 4 6 4 2 1 1 2 2 5 3 1 4 7 7 5 8 8 4 7 5 8 12 7 8 5 9 10 11 8 9 9
2 2 3 2 2 2 4 4 4 3 3 3 2 3 3 0 1 0 1 1 5 4 2 5 6 5 5 8 1 7 7 5 3 4 5 3 7 12 10 9 6 8 6 5
2 3 3 3 3 5 5 4 3 4 2 3 2 3 1 0 1 2 2 4 2 4 4 6 4 6 6 7 6 4 9 8 6 5 7 7 7 12 10 6 5 7 8 7
2 3 4 6 4 3 4 4 2 2 2 1 3 3 1 2 3 3 2 1 4 5 5 3 4 10 5 6 7 2 7 10 7 7 8 9 9 8 8 8 9 10 10 8
2 3 2 3 2 3 2 1 2 2 1 1 2 2 2 4 2 2 5 3 6 5 4 3 4 8 7 5 5 4 6 8 9 7 6 10 9 9 7 8 7 7 10 9
2 3 2 3 2 3 3 2 2 1 1 1 1 3 6 2 3 3 3 3 3 7 5 4 4 6 8 4 7 3 6 8 10 8 8 9 8 9 9 10 6 7 6 7
Wind_Direction
333 337 339 336 341 334 33 336 39 330 125 59 62 164 201 278 280 168 254 211 209 224 258 246 250 233 209 310 159 173 203 149 230 223 256 241 189 224 158 135 221 170 160 269
334 336 340 339 347 4 329 1 283 318 57 118 288 291 281 244 269 269 248 269 233 214 239 320 192 267 257 332 160 175 172 259 319 334 352 14 208 181 147 132 92 189 142 262
329 336 338 340 343 356 329 338 52 324 78 215 117 0 292 291 269 260 220 249 266 282 196 241 253 288 305 345 345 32 102 127 166 214 206 165 277 190 170 125 114 190 223 238
321 331 333 337 336 346 43 10 330 173 301 342 327 192 294 301 332 258 13 344 343 252 269 166 223 251 316 300 326 55 90 158 327 225 209 178 195 240 172 153 178 158 242 203
322 322 330 335 337 347 360 79 18 350 280 309 335 41 9 324 323 267 324 3 318 315 183 226 234 182 205 254 340 59 1 144 76 269 238 256 286 270 169 207 198 246 227 284
317 315 322 337 343 352 325 7 348 106 292 342 61 200 307 317 325 297 325 316 313 10 4 295 266 105 133 182 323 19 79 106 70 286 350 303 4 246 234 228 179 151 184 231
317 316 304 334 346 22 328 320 331 43 284 315 330 330 310 310 321 260 286 326 360 285 326 278 359 64 91 71 34 115 134 105 95 218 21 298 239 289 250 234 96 278 347 204
309 314 310 220 306 329 294 293 341 338 275 303 285 333 295 310 303 288 283 301 257 308 5 34 11 345 11 8 19 339 63 128 111 156 180 277 287 329 193 171 246 335 274 139
299 304 308 235 197 288 266 269 238 266 326 251 305 309 297 287 312 329 289 317 297 12 69 79 153 223 243 321 342 31 10 93 129 124 156 218 251 347 336 314 297 333 339 62
288 295 301 222 198 226 228 276 270 259 259 266 75 227 258 332 342 276 297 327 332 35 75 73 166 224 194 233 203 334 321 1 212 167 192 278 353 298 302 153 224 207 100 73
279 285 294 227 212 243 216 263 256 225 262 271 229 245 273 334 259 254 290 4 338 3 81 139 193 197 225 250 254 192 185 132 237 257 143 271 5 344 181 304 175 140 115 135
268 277 288 228 237 255 218 251 301 323 222 250 221 235 234 230 237 69 311 245 234 203 81 46 120 189 216 180 278 92 266 186 227 190 243 251 168 222 283 356 267 201 132 159
255 269 283 226 223 225 249 266 307 315 278 285 326 243 261 221 221 204 189 269 235 149 188 163 147 202 142 172 241 266 238 165 214 2 271 254 89 292 269 318 302 304 152 181
234 254 276 226 220 218 235 238 247 162 270 279 280 299 280 206 171 194 215 234 355 59 52 121 145 193 166 206 229 197 216 130 252 265 287 279 169 224 245 265 298 287 242 270
217 245 271 213 209 216 264 257 245 242 251 290 288 300 266 238 198 199 209 220 233 60 325 154 233 165 123 232 333 255 184 198 165 227 242 263 291 283 259 242 229 250 261 304
221 246 232 206 195 193 213 260 94 209 196 279 292 291 288 308 179 191 195 202 190 173 171 226 237 218 145 174 216 260 224 225 180 223 111 240 247 357 269 273 286 261 273 276
230 224 180 187 197 205 221 254 167 52 127 258 288 299 276 285 224 181 161 153 186 157 193 213 221 215 133 199 231 255 233 239 250 214 90 284 224 214 220 199 242 231 209 203
188 159 161 165 157 279 304 290 199 171 233 248 285 278 323 347 320 287 127 127 117 217 207 114 176 4 159 246 237 249 258 245 277 265 196 238 281 297 319 337 233 200 140 86
152 147 143 122 216 200 234 159 149 214 253 291 272 281 279 349 303 271 347 95 143 267 201 210 123 223 229 228 218 229 232 207 224 110 218 264 263 295 342 6 104 112 110 108
144 149 187 185 224 126 134 152 203 200 195 238 251 218 273 6 341 306 353 113 212 185 242 102 178 238 240 256 244 249 254 242 142 317 273 226 274 265 215 66 52 128 133 134
209 181 154 48 66 141 211 189 221 160 233 211 238 204 237 282 203 278 72 317 278 233 264 181 229 260 233 223 233 237 238 205 219 230 279 231 223 204 136 111 122 150 124 136
183 113 103 124 182 204 231 193 166 219 232 234 217 224 197 261 192 231 330 257 28 242 318 204 261 242 238 261 240 245 149 148 192 212 228 238 226 166 126 125 135 153 132 149
104 148 147 166 145 171 215 192 211 215 205 243 278 302 225 225 89 331 35 267 243 331 233 231 237 270 338 322 241 100 140 144 245 243 112 141 128 132 133 132 128 119 123 139
209 164 151 210 183 240 201 208 197 230 232 293 275 269 269 211 165 161 178 251 336 299 279 246 293 311 321 341 316 176 153 132 123 98 96 100 113 110 122 143 131 130 133 123
223 205 202 213 232 243 228 230 261 307 297 337 343 318 44 289 300 192 84 284 261 234 242 254 302 312 325 328 331 288 131 122 120 102 98 90 85 94 97 97 118 114 111 126
233 236 252 256 218 283 350 222 174 191 237 60 66 296 316 258 237 194 201 196 228 255 239 254 324 324 326 320 342 357 121 108 107 97 110 99 100 93 87 83 82 97 119 115
240 251 231 252 240 237 266 219 221 163 89 227 247 238 226 297 260 229 184 228 296 297 310 330 318 297 300 254 112 110 108 108 92 93 78 82 89 93 90 83 54 74 83 97